sat.trackr.live / text

‹ back to catalog

STARLINK-34119

NORAD 63895 · 2025-095F

PAYLOAD ACTIVE UNKNOWN

§ Identity

Operator
Country
US
Launch date
2025-05-10
Launch site
AFETR
Launch vehicle
Mass (kg)
RCS (m²)

Purposes: comms

External: N2YO · Heavens-Above · Gunter

§ Orbital elements

Epoch: 2026-05-25T04:24:06.579936Z

Period
94.27 min
Inclination
42.9990°
Eccentricity
0.0001414
Mean motion
15.27593726 rev/d
Perigee alt
482.0 km
Apogee alt
484.0 km
Semi-major
6,861.1 km
B*
5.9623e-4
RAAN
104.4720°
Arg perigee
275.1177°
Mean anomaly
84.9513°
Rev number
5,948

§ Raw data

STARLINK-341191 63895U 25095F   26145.18340949  .00016188  00000+0  59623-3 0  99992 63895  42.9990 104.4720 0001414 275.1177  84.9513 15.27593726 59487

JSON: /api/v1/satellites/63895 · /tle

For live sub-satellite position, see the globe view (requires WebGL).

§ Visibility from observer

Set your observer location to see the next 7 days of passes ≥ 10°. The values pass through the URL so the page stays shareable.

No JS? Fill the form by hand. The geolocation button needs JavaScript.